Weather History for Sault Ste Marie, MI

Change the Weather History Date:

Friday, January 11, 2013

  Actual Average Record
Temperature  
Mean Temperature 36 °F 15 °F  
Max Temperature 38 °F 23 °F 44 °F (1980)
Min Temperature 34 °F 8 °F -29 °F (1981)
Degree Days  
Heating Degree Days 29 50  
Month to date heating degree days 424 538  
Since 1 July heating degree days 3391 3797  
Moisture  
Dew Point 34 °F    
Average Humidity 91    
Maximum Humidity 100    
Minimum Humidity 82    
Precipitation  
Precipitation 0.33 in 0.08 in 0.44 in (1940)
Month to date precipitation 0.51 0.85  
Year to date precipitation 0.51 0.85  
Snow  
Snow 0.00 in 1.10 in 8.50 in (2008)
Month to date snowfall 4.3 11.6  
Since 1 July snowfall 56.3 61.8  
Snow Depth 9.00 in    
Sea Level Pressure  
Sea Level Pressure 29.77 in    
Wind  
Wind Speed 8 mph (ESE)    
Max Wind Speed 16 mph    
Max Gust Speed 23 mph    
Visibility 3 miles    
Events Fog , Rain    
T = Trace of Precipitation, MM = Missing Value Source: NWS Daily Summary

Daily Weather History Graph

Daily Weather History Graph

Search for Another Location

Airport:

Trip Planner

Search our weather history database for the weather conditions in past years. The results will help you decide how hot, cold, wet, or windy it might be!

Date:

Astronomy

Jan. 11, 2013 Rise Set
Actual Time 8:18 AM EST 5:12 PM EST
Civil Twilight 7:44 AM EST 5:46 PM EST
Nautical Twilight 7:07 AM EST 6:24 PM EST
Astronomical Twilight 6:30 AM EST 7:00 PM EST
Moon 7:48 AM EST (1/11) 5:32 PM EST (1/11)
Length of Visible Light 10h 01m
Length of Day
8h 53m
Waning Crescent, 0% of the Moon is Illuminated
Jan 11
Waning Crescent
Jan 11
New
Jan 18
First Quarter
Jan 26
Full
Feb 3
Last Quarter

Hourly Weather History & Observations

Time (EST) Temp. Windchill Dew Point Humidity Pressure Visibility Wind Dir Wind Speed Gust Speed Precip Events Conditions
12:55 AM 36.0 °F 29.6 °F 30.9 °F 82% 30.13 in 10.0 mi ESE 8.1 mph 19.6 mph N/A   Clear
1:55 AM 36.0 °F 28.0 °F 30.9 °F 82% 30.07 in 10.0 mi ESE 11.5 mph - N/A   Clear
2:55 AM 35.1 °F 26.4 °F 30.0 °F 82% 30.04 in 10.0 mi ESE 12.7 mph 19.6 mph N/A   Mostly Cloudy
3:51 AM 35.6 °F 27.5 °F 30.2 °F 81% 29.97 in 10.0 mi ESE 11.5 mph 21.9 mph 0.00 in Rain Light Rain
3:55 AM 35.1 °F 26.9 °F 30.0 °F 82% 29.99 in 10.0 mi ESE 11.5 mph 21.9 mph 0.00 in Rain Light Rain
4:37 AM 35.1 °F 26.4 °F 30.9 °F 85% 29.92 in 6.0 mi ESE 12.7 mph 20.7 mph 0.01 in Rain Light Rain
4:48 AM 34.0 °F 24.6 °F 30.9 °F 89% 29.91 in 5.0 mi ESE 13.8 mph 23.0 mph 0.01 in Rain Light Rain
4:55 AM 34.0 °F 25.0 °F 30.9 °F 89% 29.93 in 5.0 mi ESE 12.7 mph 20.7 mph 0.02 in Rain Light Rain
5:55 AM 35.1 °F 27.4 °F 32.0 °F 89% 29.88 in 5.0 mi ESE 10.4 mph 18.4 mph 0.06 in Rain Light Rain
6:55 AM 36.0 °F 28.5 °F 33.1 °F 89% 29.85 in 5.0 mi SE 10.4 mph 19.6 mph 0.04 in Rain Light Rain
7:55 AM 36.0 °F 29.0 °F 33.1 °F 89% 29.80 in 5.0 mi East 9.2 mph - 0.08 in Rain Light Rain
8:17 AM 36.0 °F 29.6 °F 33.1 °F 89% 29.78 in 4.0 mi ESE 8.1 mph - 0.00 in Rain Light Rain
8:55 AM 36.0 °F 30.3 °F 34.0 °F 93% 29.80 in 3.0 mi ESE 6.9 mph - 0.02 in Rain Light Rain
9:03 AM 36.0 °F 30.3 °F 34.0 °F 93% 29.78 in 2.0 mi East 6.9 mph - 0.01 in   Overcast
9:11 AM 36.0 °F 30.3 °F 34.0 °F 93% 29.77 in 1.5 mi East 6.9 mph - 0.01 in Rain Light Rain
9:22 AM 36.0 °F 30.3 °F 34.0 °F 93% 29.76 in 2.0 mi ESE 6.9 mph - 0.01 in   Overcast
9:52 AM 35.6 °F 28.6 °F 33.8 °F 93% 29.74 in 4.0 mi East 9.2 mph - 0.02 in Rain Light Rain
9:55 AM 35.1 °F 28.6 °F 33.1 °F 92% 29.76 in 4.0 mi East 8.1 mph - 0.02 in   Overcast
10:55 AM 36.0 °F 29.6 °F 34.0 °F 93% 29.74 in 3.0 mi East 8.1 mph - 0.00 in   Overcast
11:55 AM 36.0 °F 29.0 °F 34.0 °F 93% 29.71 in 2.0 mi ESE 9.2 mph - 0.01 in Rain Light Rain
12:09 PM 36.0 °F 29.6 °F 34.0 °F 93% 29.69 in 4.0 mi ESE 8.1 mph - 0.01 in Rain Light Rain
12:26 PM 36.0 °F 29.6 °F 35.1 °F 97% 29.67 in 1.8 mi East 8.1 mph - 0.01 in Rain Light Rain
12:45 PM 37.0 °F 32.4 °F 35.1 °F 93% 29.66 in 2.5 mi East 5.8 mph - 0.03 in Rain Light Rain
12:52 PM 37.4 °F 32.8 °F 35.6 °F 93% 29.66 in 4.0 mi ESE 5.8 mph - 0.03 in   Overcast
12:55 PM 37.0 °F 33.3 °F 35.1 °F 93% 29.68 in 4.0 mi Variable 4.6 mph - 0.03 in   Overcast
1:55 PM 37.0 °F 31.0 °F 35.1 °F 93% 29.65 in 4.0 mi East 8.1 mph - N/A   Overcast
2:20 PM 37.0 °F 31.6 °F 35.1 °F 93% 29.65 in 2.0 mi East 6.9 mph - 0.00 in   Overcast
2:30 PM 37.0 °F 32.4 °F 35.1 °F 93% 29.65 in 1.2 mi East 5.8 mph - 0.00 in   Overcast
2:46 PM 37.0 °F 32.4 °F 35.1 °F 93% 29.65 in 0.8 mi East 5.8 mph - 0.00 in Rain Light Rain
2:55 PM 37.0 °F 31.6 °F 35.1 °F 93% 29.67 in 0.5 mi East 6.9 mph - 0.00 in Fog , Rain Light Rain
3:55 PM 37.0 °F 32.4 °F 35.1 °F 93% 29.66 in 0.2 mi East 5.8 mph - 0.01 in Fog Fog
4:55 PM 37.0 °F 33.3 °F 35.1 °F 93% 29.67 in 0.2 mi East 4.6 mph - N/A Fog Fog
5:55 PM 36.0 °F 32.1 °F 35.1 °F 97% 29.68 in 0.2 mi East 4.6 mph - N/A Fog Fog
6:55 PM 36.0 °F 32.1 °F 35.1 °F 97% 29.69 in 0.8 mi East 4.6 mph - 0.02 in   Mist
7:55 PM 37.0 °F 31.6 °F 35.1 °F 93% 29.69 in 0.5 mi ESE 6.9 mph - N/A Fog Fog
8:26 PM 37.0 °F 31.6 °F 35.1 °F 93% 29.69 in 1.0 mi SE 6.9 mph - 0.00 in   Mist
8:55 PM 36.0 °F 33.3 °F 35.1 °F 97% 29.70 in 0.8 mi ESE 3.5 mph - 0.01 in   Mist
9:55 PM 36.0 °F 33.3 °F 35.1 °F 97% 29.69 in 0.2 mi ESE 3.5 mph - N/A Fog Fog
10:55 PM 37.9 °F 33.5 °F 36.0 °F 93% 29.70 in 0.2 mi SE 5.8 mph - N/A Fog Fog
11:55 PM 37.9 °F 32.7 °F 36.0 °F 93% 29.70 in 0.8 mi ESE 6.9 mph - 0.01 in   Mist